| time (UTC) | temp F | wind direction | speed MPH | gust MPH | rain 1hr in | rain 24hr in | rain mn in | humidity % | barometer mb |
| 20260507014849 | 50 | 191 | 13.0 | 23.0 | 0.00 | 0.00 | 0.00 | 100 | |
| 20260507014449 | 50 | 166 | 15.0 | 21.0 | 0.00 | 0.00 | 0.00 | 100 | |
| 20260507014049 | 50 | 176 | 14.0 | 29.0 | 0.00 | 0.00 | 0.00 | 100 | |
| 20260507013649 | 50 | 166 | 14.0 | 22.0 | 0.00 | 0.00 | 0.00 | 100 | |
| 20260507013248 | 51 | 188 | 14.0 | 24.0 | 0.00 | 0.00 | 0.00 | 100 | |
| 20260507012847 | 51 | 165 | 15.0 | 27.0 | 0.00 | 0.00 | 0.00 | 100 | |
| 20260507012447 | 51 | 174 | 13.0 | 21.0 | 0.00 | 0.00 | 0.00 | 100 | |
| 20260507012047 | 51 | 184 | 16.0 | 21.0 | 0.00 | 0.00 | 0.00 | 100 | |
| 20260507011647 | 51 | 163 | 14.0 | 20.0 | 0.00 | 0.00 | 0.00 | 100 | |
| 20260507011246 | 51 | 174 | 17.0 | 25.0 | 0.00 | 0.00 | 0.00 | 100 | |
| 20260507010844 | 51 | 153 | 14.0 | 19.0 | 0.00 | 0.00 | 0.00 | 100 | |
| 20260507010444 | 51 | 151 | 15.0 | 24.0 | 0.00 | 0.00 | 0.00 | 100 | |
| 20260507010044 | 51 | 173 | 12.0 | 17.0 | 0.00 | 0.00 | 0.00 | 100 | |
| 20260507005644 | 52 | 169 | 14.0 | 18.0 | 0.00 | 0.00 | 0.00 | 100 | |
| 20260507005244 | 52 | 180 | 16.0 | 22.0 | 0.00 | 0.00 | 0.00 | 100 | |
| 20260507004842 | 51 | 156 | 14.0 | 24.0 | 0.00 | 0.00 | 0.00 | 100 | |
| 20260507004440 | 52 | 177 | 13.0 | 17.0 | 0.00 | 0.00 | 0.00 | 100 | |
| 20260507004040 | 52 | 167 | 13.0 | 26.0 | 0.00 | 0.00 | 0.00 | 100 | |
| 20260507003640 | 52 | 158 | 12.0 | 19.0 | 0.00 | 0.00 | 0.00 | 100 | |
| 20260507003240 | 52 | 166 | 10.0 | 17.0 | 0.00 | 0.00 | 0.00 | 100 | |
| 20260507002838 | 52 | 169 | 11.0 | 16.0 | 0.00 | 0.00 | 0.00 | 100 | |
| 20260507002438 | 52 | 157 | 12.0 | 16.0 | 0.00 | 0.00 | 0.00 | 100 | |
| 20260507002037 | 52 | 180 | 14.0 | 21.0 | 0.00 | 0.00 | 0.00 | 100 | |
| 20260507001637 | 52 | 154 | 11.0 | 20.0 | 0.00 | 0.00 | 0.00 | 100 | |
| 20260507001237 | 52 | 156 | 13.0 | 19.0 | 0.00 | 0.00 | 0.00 | 100 | |
| 20260507000835 | 52 | 170 | 12.0 | 18.0 | 0.00 | 0.00 | 0.00 | 100 | |
| 20260507000435 | 53 | 178 | 13.0 | 21.0 | 0.00 | 0.00 | 0.00 | 100 | |
| 20260507000035 | 53 | 157 | 12.0 | 19.0 | 0.00 | 0.00 | 0.00 | 100 | |
| 20260506235636 | 53 | 183 | 15.0 | 26.0 | 0.00 | 0.00 | 0.00 | 100 | |
| 20260506235228 | 53 | 188 | 15.0 | 20.0 | 0.00 | 0.00 | 0.00 | 100 | |
| 20260506234829 | 53 | 180 | 17.0 | 26.0 | 0.00 | 0.00 | 0.00 | 100 | |
| 20260506234426 | 53 | 155 | 12.0 | 22.0 | 0.00 | 0.00 | 0.00 | 100 | |
| 20260506234026 | 53 | 154 | 13.0 | 18.0 | 0.00 | 0.00 | 0.00 | 100 | |
| 20260506233626 | 53 | 133 | 13.0 | 20.0 | 0.00 | 0.00 | 0.00 | 100 | |
| 20260506233226 | 53 | 163 | 14.0 | 24.0 | 0.00 | 0.00 | 0.00 | 100 | |
| 20260506232824 | 53 | 173 | 16.0 | 26.0 | 0.00 | 0.00 | 0.00 | 100 | |
| 20260506232424 | 53 | 181 | 17.0 | 25.0 | 0.00 | 0.00 | 0.00 | 100 | |
| 20260506232024 | 53 | 184 | 16.0 | 26.0 | 0.00 | 0.00 | 0.00 | 100 | |
| 20260506231623 | 53 | 187 | 16.0 | 28.0 | 0.00 | 0.00 | 0.00 | 100 | |
| 20260506231223 | 53 | 180 | 17.0 | 24.0 | 0.00 | 0.00 | 0.00 | 100 | |
| 20260506230821 | 53 | 180 | 17.0 | 26.0 | 0.00 | 0.00 | 0.00 | 100 | |
| 20260506230422 | 53 | 187 | 17.0 | 27.0 | 0.00 | 0.00 | 0.00 | 100 | |
| 20260506230022 | 54 | 171 | 15.0 | 19.0 | 0.00 | 0.00 | 0.00 | 100 | |
| 20260506225621 | 54 | 194 | 18.0 | 27.0 | 0.00 | 0.00 | 0.00 | 100 | |
| 20260506225221 | 54 | 176 | 16.0 | 21.0 | 0.00 | 0.00 | 0.00 | 100 | |
| 20260506224819 | 54 | 189 | 18.0 | 27.0 | 0.00 | 0.00 | 0.00 | 100 | |
| 20260506224419 | 54 | 180 | 17.0 | 27.0 | 0.00 | 0.00 | 0.00 | 100 | |
| 20260506224019 | 54 | 170 | 16.0 | 30.0 | 0.00 | 0.00 | 0.00 | 100 | |
| 20260506223619 | 54 | 194 | 15.0 | 23.0 | 0.00 | 0.00 | 0.00 | 100 | |
| 20260506223218 | 54 | 192 | 17.0 | 22.0 | 0.00 | 0.00 | 0.00 | 100 | |
| 20260506222817 | 54 | 196 | 15.0 | 30.0 | 0.00 | 0.00 | 0.00 | 100 | |
| 20260506222417 | 54 | 182 | 16.0 | 24.0 | 0.00 | 0.00 | 0.00 | 100 | |
| 20260506222017 | 54 | 190 | 14.0 | 22.0 | 0.00 | 0.00 | 0.00 | 100 | |
| 20260506221617 | 54 | 195 | 13.0 | 19.0 | 0.00 | 0.00 | 0.00 | 100 | |
| 20260506221216 | 54 | 180 | 13.0 | 18.0 | 0.00 | 0.00 | 0.00 | 100 | |
| 20260506220814 | 54 | 174 | 12.0 | 19.0 | 0.00 | 0.00 | 0.00 | 100 | |
| 20260506220414 | 54 | 180 | 10.0 | 13.0 | 0.00 | 0.00 | 0.00 | 100 | |
| 20260506220014 | 54 | 176 | 12.0 | 17.0 | 0.00 | 0.00 | 0.00 | 100 | |
| 20260506215614 | 54 | 178 | 12.0 | 19.0 | 0.00 | 0.00 | 0.00 | 100 | |
| 20260506215214 | 55 | 159 | 13.0 | 20.0 | 0.00 | 0.00 | 0.00 | 100 | |
| 20260506214812 | 55 | 184 | 13.0 | 21.0 | 0.00 | 0.00 | 0.00 | 100 | |
| 20260506214412 | 55 | 158 | 14.0 | 22.0 | 0.00 | 0.00 | 0.00 | 100 | |
| 20260506214012 | 55 | 175 | 14.0 | 24.0 | 0.00 | 0.00 | 0.00 | 100 | |
| 20260506213612 | 55 | 197 | 15.0 | 21.0 | 0.00 | 0.00 | 0.00 | 100 | |
| 20260506213212 | 55 | 174 | 11.0 | 16.0 | 0.00 | 0.00 | 0.00 | 100 | |
| 20260506212810 | 55 | 178 | 11.0 | 15.0 | 0.00 | 0.00 | 0.00 | 100 | |
| 20260506212410 | 55 | 203 | 8.0 | 13.0 | 0.00 | 0.00 | 0.00 | 100 | |
| 20260506212010 | 55 | 195 | 12.0 | 19.0 | 0.00 | 0.00 | 0.00 | 100 | |
| 20260506211600 | 55 | 195 | 14.0 | 18.0 | 0.00 | 0.00 | 0.00 | 100 | |
| 20260506211201 | 55 | 188 | 16.0 | 23.0 | 0.00 | 0.00 | 0.00 | 100 | |
| 20260506210759 | 56 | 178 | 14.0 | 23.0 | 0.00 | 0.00 | 0.00 | 100 | |
| 20260506210359 | 56 | 177 | 13.0 | 24.0 | 0.00 | 0.00 | 0.00 | 100 | |
| 20260506205959 | 56 | 193 | 16.0 | 28.0 | 0.00 | 0.00 | 0.00 | 100 | |
| 20260506205558 | 56 | 184 | 17.0 | 27.0 | 0.00 | 0.00 | 0.00 | 100 | |
| 20260506205158 | 56 | 191 | 16.0 | 27.0 | 0.00 | 0.00 | 0.00 | 100 | |
| 20260506204756 | 56 | 182 | 14.0 | 22.0 | 0.00 | 0.00 | 0.00 | 100 | |
| 20260506204356 | 56 | 187 | 16.0 | 23.0 | 0.00 | 0.00 | 0.00 | 100 | |
| 20260506203956 | 56 | 181 | 16.0 | 26.0 | 0.00 | 0.00 | 0.00 | 100 | |
| 20260506203554 | 56 | 180 | 16.0 | 27.0 | 0.00 | 0.00 | 0.00 | 100 | |
| 20260506203154 | 56 | 199 | 18.0 | 23.0 | 0.00 | 0.00 | 0.00 | 100 | |
| 20260506202752 | 55 | 168 | 15.0 | 22.0 | 0.00 | 0.00 | 0.00 | 100 | |
| 20260506202353 | 56 | 180 | 13.0 | 21.0 | 0.00 | 0.00 | 0.00 | 100 | |
| 20260506201952 | 56 | 187 | 12.0 | 20.0 | 0.00 | 0.00 | 0.00 | 100 | |
| 20260506201552 | 56 | 188 | 12.0 | 21.0 | 0.00 | 0.00 | 0.00 | 100 | |
| 20260506201152 | 56 | 194 | 13.0 | 19.0 | 0.00 | 0.00 | 0.00 | 100 | |
| 20260506200750 | 56 | 183 | 10.0 | 15.0 | 0.00 | 0.00 | 0.00 | 100 | |
| 20260506200349 | 56 | 193 | 10.0 | 16.0 | 0.00 | 0.00 | 0.00 | 100 | |
| 20260506195949 | 56 | 206 | 11.0 | 14.0 | 0.00 | 0.00 | 0.00 | 100 | |
| 20260506195549 | 56 | 195 | 11.0 | 15.0 | 0.00 | 0.00 | 0.00 | 100 | |
| 20260506195149 | 56 | 197 | 11.0 | 17.0 | 0.00 | 0.00 | 0.00 | 100 | |
| 20260506194750 | 56 | 196 | 11.0 | 15.0 | 0.00 | 0.00 | 0.00 | 100 | |
| 20260506194347 | 56 | 187 | 11.0 | 16.0 | 0.00 | 0.00 | 0.00 | 100 | |
| 20260506193947 | 56 | 205 | 10.0 | 15.0 | 0.00 | 0.00 | 0.00 | 100 | |
| 20260506193547 | 56 | 196 | 10.0 | 14.0 | 0.00 | 0.00 | 0.00 | 100 | |
| 20260506193147 | 56 | 194 | 11.0 | 24.0 | 0.00 | 0.00 | 0.00 | 100 | |
| 20260506192745 | 56 | 206 | 11.0 | 16.0 | 0.00 | 0.00 | 0.00 | 100 | |
| 20260506192344 | 56 | 199 | 10.0 | 16.0 | 0.00 | 0.00 | 0.00 | 100 | |
| 20260506191944 | 56 | 198 | 11.0 | 15.0 | 0.00 | 0.00 | 0.00 | 100 | |
| 20260506191544 | 56 | 198 | 9.0 | 18.0 | 0.00 | 0.00 | 0.00 | 100 | |
| 20260506191144 | 56 | 197 | 10.0 | 14.0 | 0.00 | 0.00 | 0.00 | 100 | |
| 20260506190745 | 56 | 196 | 10.0 | 16.0 | 0.00 | 0.00 | 0.00 | 100 | |
| 20260506190342 | 56 | 196 | 11.0 | 18.0 | 0.00 | 0.00 | 0.00 | 100 | |
| 20260506185942 | 56 | 194 | 9.0 | 14.0 | 0.00 | 0.00 | 0.00 | 100 | |
| 20260506185541 | 56 | 198 | 10.0 | 15.0 | 0.00 | 0.00 | 0.00 | 100 | |
| 20260506185141 | 56 | 191 | 8.0 | 13.0 | 0.00 | 0.00 | 0.00 | 100 | |
| 20260506184739 | 56 | 205 | 7.0 | 12.0 | 0.00 | 0.00 | 0.00 | 100 | |
| 20260506184339 | 57 | 203 | 8.0 | 13.0 | 0.00 | 0.00 | 0.00 | 100 | |
| 20260506183931 | 57 | 204 | 8.0 | 13.0 | 0.00 | 0.00 | 0.00 | 100 | |
| 20260506183531 | 57 | 194 | 10.0 | 14.0 | 0.00 | 0.00 | 0.00 | 100 | |
| 20260506183131 | 57 | 199 | 10.0 | 14.0 | 0.00 | 0.00 | 0.00 | 100 | |
| 20260506182729 | 57 | 196 | 10.0 | 13.0 | 0.00 | 0.00 | 0.00 | 100 | |
| 20260506182329 | 57 | 206 | 9.0 | 16.0 | 0.00 | 0.00 | 0.00 | 100 | |
| 20260506181928 | 57 | 211 | 10.0 | 14.0 | 0.00 | 0.00 | 0.00 | 100 | |
| 20260506181529 | 57 | 202 | 9.0 | 12.0 | 0.00 | 0.00 | 0.00 | 100 | |
| 20260506181129 | 57 | 194 | 9.0 | 15.0 | 0.00 | 0.00 | 0.00 | 100 | |
| 20260506180727 | 57 | 191 | 7.0 | 11.0 | 0.00 | 0.00 | 0.00 | 100 | |
| 20260506180327 | 58 | 203 | 10.0 | 16.0 | 0.00 | 0.00 | 0.00 | 100 | |
| 20260506175927 | 58 | 199 | 10.0 | 14.0 | 0.00 | 0.00 | 0.00 | 100 | |
| 20260506175526 | 58 | 203 | 9.0 | 14.0 | 0.00 | 0.00 | 0.00 | 100 | |
| 20260506175126 | 58 | 209 | 10.0 | 16.0 | 0.00 | 0.00 | 0.00 | 100 | |
| 20260506174724 | 58 | 201 | 10.0 | 13.0 | 0.00 | 0.00 | 0.00 | 100 | |
| 20260506174325 | 58 | 179 | 8.0 | 14.0 | 0.00 | 0.00 | 0.00 | 100 | |
| 20260506173924 | 58 | 199 | 9.0 | 14.0 | 0.00 | 0.00 | 0.00 | 100 | |
| 20260506173524 | 58 | 193 | 11.0 | 17.0 | 0.00 | 0.00 | 0.00 | 100 | |
| 20260506173124 | 58 | 203 | 10.0 | 16.0 | 0.00 | 0.00 | 0.00 | 100 | |
| 20260506172722 | 58 | 204 | 9.0 | 17.0 | 0.00 | 0.00 | 0.00 | 100 | |
| 20260506172322 | 58 | 192 | 11.0 | 18.0 | 0.00 | 0.00 | 0.00 | 100 | |
| 20260506171922 | 58 | 187 | 8.0 | 13.0 | 0.00 | 0.00 | 0.00 | 100 | |
| 20260506171522 | 58 | 196 | 10.0 | 22.0 | 0.00 | 0.00 | 0.00 | 100 | |
| 20260506171122 | 58 | 177 | 12.0 | 18.0 | 0.00 | 0.00 | 0.00 | 100 | |
| 20260506170720 | 58 | 195 | 10.0 | 16.0 | 0.00 | 0.00 | 0.00 | 100 | |
| 20260506170320 | 58 | 202 | 9.0 | 13.0 | 0.00 | 0.00 | 0.00 | 100 | |
| 20260506165920 | 59 | 208 | 9.0 | 18.0 | 0.00 | 0.00 | 0.00 | 100 | |
| 20260506165521 | 59 | 190 | 9.0 | 16.0 | 0.00 | 0.00 | 0.00 | 100 | |
| 20260506165121 | 59 | 202 | 9.0 | 13.0 | 0.00 | 0.00 | 0.00 | 100 | |
| 20260506164718 | 59 | 181 | 10.0 | 18.0 | 0.00 | 0.00 | 0.00 | 100 | |
| 20260506164319 | 59 | 196 | 11.0 | 16.0 | 0.00 | 0.00 | 0.00 | 100 | |
| 20260506163919 | 59 | 197 | 10.0 | 15.0 | 0.00 | 0.00 | 0.00 | 100 | |
| 20260506163519 | 59 | 200 | 11.0 | 21.0 | 0.00 | 0.00 | 0.00 | 100 | |
| 20260506163119 | 59 | 206 | 11.0 | 19.0 | 0.00 | 0.00 | 0.00 | 100 | |
| 20260506162717 | 59 | 206 | 13.0 | 20.0 | 0.00 | 0.00 | 0.00 | 100 | |
| 20260506162315 | 59 | 213 | 10.0 | 16.0 | 0.00 | 0.00 | 0.00 | 100 | |
| 20260506161915 | 59 | 205 | 10.0 | 16.0 | 0.00 | 0.00 | 0.00 | 100 | |
| 20260506161515 | 59 | 209 | 10.0 | 18.0 | 0.00 | 0.00 | 0.00 | 100 | |
| 20260506161115 | 59 | 205 | 12.0 | 18.0 | 0.00 | 0.00 | 0.00 | 100 | |
| 20260506160704 | 59 | 202 | 11.0 | 16.0 | 0.00 | 0.00 | 0.00 | 100 | |
| 20260506160304 | 59 | 212 | 10.0 | 22.0 | 0.00 | 0.00 | 0.00 | 100 | |
| 20260506155904 | 59 | 198 | 7.0 | 10.0 | 0.00 | 0.00 | 0.00 | 100 | |
| 20260506155504 | 60 | 206 | 8.0 | 13.0 | 0.00 | 0.00 | 0.00 | 100 | |
| 20260506155104 | 60 | 209 | 9.0 | 13.0 | 0.00 | 0.00 | 0.00 | 100 | |
| 20260506154702 | 60 | 206 | 10.0 | 18.0 | 0.00 | 0.00 | 0.00 | 100 | |
| 20260506154302 | 61 | 203 | 10.0 | 14.0 | 0.00 | 0.00 | 0.00 | 100 | |
| 20260506153901 | 61 | 210 | 8.0 | 13.0 | 0.00 | 0.00 | 0.00 | 100 | |
| 20260506153501 | 61 | 231 | 5.0 | 10.0 | 0.00 | 0.00 | 0.00 | 100 | |
| 20260506153101 | 61 | 224 | 6.0 | 9.0 | 0.00 | 0.00 | 0.00 | 100 | |
| 20260506152659 | 61 | 211 | 8.0 | 15.0 | 0.00 | 0.00 | 0.00 | 100 | |
| 20260506152259 | 61 | 217 | 9.0 | 18.0 | 0.00 | 0.00 | 0.00 | 100 | |
| 20260506151859 | 61 | 218 | 8.0 | 15.0 | 0.00 | 0.00 | 0.00 | 100 | |
| 20260506151459 | 61 | 231 | 8.0 | 12.0 | 0.00 | 0.00 | 0.00 | 100 | |
| 20260506151059 | 61 | 219 | 8.0 | 12.0 | 0.00 | 0.00 | 0.00 | 100 | |
| 20260506150657 | 61 | 209 | 10.0 | 18.0 | 0.00 | 0.00 | 0.00 | 100 | |
| 20260506150303 | 62 | 208 | 12.0 | 18.0 | 0.00 | 0.00 | 0.00 | 100 | |
| 20260506145857 | 62 | 219 | 11.0 | 18.0 | 0.00 | 0.00 | 0.00 | 100 | |
| 20260506145457 | 63 | 225 | 12.0 | 19.0 | 0.00 | 0.00 | 0.00 | 100 | |
| 20260506145057 | 63 | 222 | 10.0 | 16.0 | 0.00 | 0.00 | 0.00 | 100 | |
| 20260506144655 | 63 | 214 | 8.0 | 12.0 | 0.00 | 0.00 | 0.00 | 100 | |
| 20260506144255 | 63 | 214 | 10.0 | 20.0 | 0.00 | 0.00 | 0.00 | 100 | |
| 20260506143855 | 63 | 223 | 8.0 | 13.0 | 0.00 | 0.00 | 0.00 | 100 | |
| 20260506143455 | 63 | 222 | 9.0 | 14.0 | 0.00 | 0.00 | 0.00 | 100 | |
| 20260506143055 | 63 | 218 | 12.0 | 17.0 | 0.00 | 0.00 | 0.00 | 100 | |
| 20260506142654 | 63 | 222 | 8.0 | 13.0 | 0.00 | 0.00 | 0.00 | 100 | |
| 20260506142254 | 63 | 224 | 8.0 | 15.0 | 0.00 | 0.00 | 0.00 | 100 | |
| 20260506141854 | 63 | 221 | 8.0 | 15.0 | 0.00 | 0.00 | 0.00 | 100 | |
| 20260506141454 | 63 | 225 | 9.0 | 16.0 | 0.00 | 0.00 | 0.00 | 100 | |
| 20260506141054 | 65 | 222 | 12.0 | 20.0 | 0.00 | 0.00 | 0.00 | 100 | |
| 20260506140652 | 65 | 226 | 11.0 | 17.0 | 0.00 | 0.00 | 0.00 | 100 | |
| 20260506140251 | 65 | 238 | 9.0 | 15.0 | 0.00 | 0.00 | 0.00 | 100 | |
| 20260506135851 | 65 | 225 | 7.0 | 12.0 | 0.00 | 0.00 | 0.00 | 100 | |
| 20260506135526 | 65 | 240 | 9.0 | 14.0 | 0.00 | 0.00 | 0.00 | 100 | |
| 20260506135452 | 65 | 240 | 9.0 | 14.0 | 0.00 | 0.00 | 0.00 | 100 | |
| 20260506135052 | 65 | 242 | 7.0 | 14.0 | 0.00 | 0.00 | 0.00 | 100 | |
| 20260506134650 | 64 | 229 | 8.0 | 14.0 | 0.00 | 0.00 | 0.00 | 100 | |
| 20260506134250 | 63 | 227 | 7.0 | 9.0 | 0.00 | 0.00 | 0.00 | 100 | |
| 20260506133850 | 63 | 221 | 9.0 | 15.0 | 0.00 | 0.00 | 0.00 | 100 | |
| 20260506133450 | 63 | 220 | 8.0 | 13.0 | 0.00 | 0.00 | 0.00 | 100 | |
| 20260506133042 | 64 | 240 | 9.0 | 14.0 | 0.00 | 0.00 | 0.00 | 100 | |
| 20260506132641 | 64 | 231 | 10.0 | 15.0 | 0.00 | 0.00 | 0.00 | 100 | |
| 20260506132240 | 64 | 228 | 11.0 | 19.0 | 0.00 | 0.00 | 0.00 | 100 | |
| 20260506131840 | 65 | 222 | 12.0 | 19.0 | 0.00 | 0.00 | 0.00 | 100 | |
| 20260506131440 | 64 | 222 | 11.0 | 18.0 | 0.00 | 0.00 | 0.00 | 100 | |
| 20260506131040 | 64 | 234 | 9.0 | 15.0 | 0.00 | 0.00 | 0.00 | 100 | |
| 20260506130638 | 65 | 228 | 9.0 | 14.0 | 0.00 | 0.00 | 0.00 | 100 | |
| 20260506130238 | 66 | 221 | 6.0 | 10.0 | 0.00 | 0.00 | 0.00 | 100 | |
| 20260506125837 | 66 | 243 | 7.0 | 11.0 | 0.00 | 0.00 | 0.00 | 100 | |
| 20260506125438 | 65 | 230 | 7.0 | 14.0 | 0.00 | 0.00 | 0.00 | 100 | |
| 20260506125038 | 64 | 216 | 12.0 | 20.0 | 0.00 | 0.00 | 0.00 | 100 | |
| 20260506124636 | 64 | 226 | 10.0 | 14.0 | 0.00 | 0.00 | 0.00 | 100 | |
| 20260506124236 | 63 | 224 | 10.0 | 16.0 | 0.00 | 0.00 | 0.00 | 100 | |
| 20260506123835 | 63 | 220 | 9.0 | 16.0 | 0.00 | 0.00 | 0.00 | 100 | |
| 20260506123435 | 62 | 225 | 9.0 | 16.0 | 0.00 | 0.00 | 0.00 | 100 | |
| 20260506123036 | 63 | 228 | 10.0 | 14.0 | 0.00 | 0.00 | 0.00 | 100 | |
| 20260506122633 | 64 | 220 | 12.0 | 22.0 | 0.00 | 0.00 | 0.00 | 100 | |
| 20260506122233 | 64 | 214 | 12.0 | 21.0 | 0.00 | 0.00 | 0.00 | 100 | |
| 20260506121832 | 63 | 222 | 13.0 | 19.0 | 0.00 | 0.00 | 0.00 | 100 | |
| 20260506121430 | 64 | 225 | 12.0 | 16.0 | 0.00 | 0.00 | 0.00 | 100 | |
| 20260506121030 | 63 | 212 | 13.0 | 20.0 | 0.00 | 0.00 | 0.00 | 100 | |
| 20260506120629 | 63 | 228 | 13.0 | 24.0 | 0.00 | 0.00 | 0.00 | 100 | |
| 20260506120229 | 63 | 234 | 9.0 | 20.0 | 0.00 | 0.00 | 0.00 | 100 | |
| 20260506115829 | 64 | 230 | 10.0 | 16.0 | 0.00 | 0.00 | 0.00 | 100 | |
| 20260506115429 | 63 | 236 | 8.0 | 15.0 | 0.00 | 0.00 | 0.00 | 100 | |
| 20260506115029 | 62 | 209 | 12.0 | 15.0 | 0.00 | 0.00 | 0.00 | 100 | |
| 20260506114627 | 61 | 218 | 9.0 | 12.0 | 0.00 | 0.00 | 0.00 | 100 | |
| 20260506114227 | 62 | 233 | 8.0 | 14.0 | 0.00 | 0.00 | 0.00 | 100 | |
| 20260506113829 | 62 | 231 | 8.0 | 12.0 | 0.00 | 0.00 | 0.00 | 100 | |
| 20260506113427 | 63 | 220 | 9.0 | 18.0 | 0.00 | 0.00 | 0.00 | 100 | |
| 20260506113027 | 62 | 212 | 10.0 | 14.0 | 0.00 | 0.00 | 0.00 | 100 | |
| 20260506112625 | 61 | 236 | 7.0 | 14.0 | 0.00 | 0.00 | 0.00 | 100 | |
| 20260506112225 | 60 | 234 | 10.0 | 14.0 | 0.00 | 0.00 | 0.00 | 100 | |
| 20260506111825 | 60 | 225 | 8.0 | 13.0 | 0.00 | 0.00 | 0.00 | 100 | |
| 20260506111425 | 60 | 228 | 5.0 | 12.0 | 0.00 | 0.00 | 0.00 | 100 | |
| 20260506111025 | 60 | 221 | 7.0 | 11.0 | 0.00 | 0.00 | 0.00 | 100 | |
| 20260506110623 | 60 | 220 | 7.0 | 9.0 | 0.00 | 0.00 | 0.00 | 100 | |
| 20260506110223 | 60 | 214 | 6.0 | 12.0 | 0.00 | 0.00 | 0.00 | 100 | |
| 20260506105823 | 60 | 225 | 6.0 | 11.0 | 0.00 | 0.00 | 0.00 | 100 | |
| 20260506105414 | 61 | 221 | 8.0 | 12.0 | 0.00 | 0.00 | 0.00 | 100 | |
| 20260506105014 | 61 | 231 | 7.0 | 11.0 | 0.00 | 0.00 | 0.00 | 100 | |
| 20260506104657 | 61 | 219 | 9.0 | 16.0 | 0.00 | 0.00 | 0.00 | 100 | |
| 20260506104612 | 61 | 219 | 9.0 | 16.0 | 0.00 | 0.00 | 0.00 | 100 | |
| 20260506104211 | 60 | 195 | 9.0 | 15.0 | 0.00 | 0.00 | 0.00 | 100 | |
| 20260506103811 | 59 | 225 | 7.0 | 12.0 | 0.00 | 0.00 | 0.00 | 100 | |
| 20260506103411 | 59 | 230 | 7.0 | 14.0 | 0.00 | 0.00 | 0.00 | 100 | |
| 20260506103011 | 59 | 237 | 9.0 | 16.0 | 0.00 | 0.00 | 0.00 | 100 | |
| 20260506102609 | 60 | 226 | 10.0 | 17.0 | 0.00 | 0.00 | 0.00 | 100 | |
| 20260506102209 | 60 | 213 | 12.0 | 18.0 | 0.00 | 0.00 | 0.00 | 100 | |
| 20260506101809 | 61 | 223 | 12.0 | 16.0 | 0.00 | 0.00 | 0.00 | 100 | |
| 20260506101409 | 61 | 223 | 10.0 | 15.0 | 0.00 | 0.00 | 0.00 | 100 | |
| 20260506101009 | 60 | 222 | 5.0 | 8.0 | 0.00 | 0.00 | 0.00 | 100 | |
| 20260506100607 | 59 | 233 | 6.0 | 12.0 | 0.00 | 0.00 | 0.00 | 100 | |
| 20260506100207 | 59 | 194 | 9.0 | 17.0 | 0.00 | 0.00 | 0.00 | 100 | |
| 20260506095806 | 59 | 218 | 7.0 | 14.0 | 0.00 | 0.00 | 0.00 | 100 | |
| 20260506095406 | 60 | 232 | 8.0 | 14.0 | 0.00 | 0.00 | 0.00 | 100 | |
| 20260506095006 | 60 | 225 | 8.0 | 16.0 | 0.00 | 0.00 | 0.00 | 100 | |
| 20260506094605 | 60 | 207 | 11.0 | 17.0 | 0.00 | 0.00 | 0.00 | 100 | |
| 20260506094205 | 60 | 231 | 9.0 | 13.0 | 0.00 | 0.00 | 0.00 | 100 | |
| 20260506093806 | 60 | 235 | 8.0 | 13.0 | 0.00 | 0.00 | 0.00 | 100 | |
| 20260506093404 | 59 | 218 | 8.0 | 14.0 | 0.00 | 0.00 | 0.00 | 100 | |
| 20260506093004 | 59 | 228 | 6.0 | 12.0 | 0.00 | 0.00 | 0.00 | 100 | |
| 20260506092602 | 58 | 212 | 7.0 | 11.0 | 0.00 | 0.00 | 0.00 | 100 | |
| 20260506092202 | 59 | 225 | 6.0 | 9.0 | 0.00 | 0.00 | 0.00 | 100 | |
| 20260506091802 | 59 | 207 | 7.0 | 11.0 | 0.00 | 0.00 | 0.00 | 100 | |
| 20260506091402 | 59 | 217 | 8.0 | 14.0 | 0.00 | 0.00 | 0.00 | 100 | |
| 20260506091002 | 58 | 236 | 8.0 | 11.0 | 0.00 | 0.00 | 0.00 | 100 | |
| 20260506090600 | 58 | 202 | 8.0 | 13.0 | 0.00 | 0.00 | 0.00 | 100 | |
| 20260506090200 | 58 | 203 | 9.0 | 14.0 | 0.00 | 0.00 | 0.00 | 100 | |
| 20260506085800 | 58 | 217 | 9.0 | 13.0 | 0.00 | 0.00 | 0.00 | 100 | |
| 20260506085400 | 58 | 218 | 10.0 | 13.0 | 0.00 | 0.00 | 0.00 | 100 | |
| 20260506085000 | 58 | 177 | 7.0 | 9.0 | 0.00 | 0.00 | 0.00 | 100 | |
| 20260506084558 | 58 | 198 | 9.0 | 13.0 | 0.00 | 0.00 | 0.00 | 100 | |
| 20260506084158 | 58 | 201 | 10.0 | 13.0 | 0.00 | 0.00 | 0.00 | 100 | |
| 20260506083758 | 58 | 192 | 11.0 | 17.0 | 0.00 | 0.00 | 0.00 | 100 | |
| 20260506083358 | 57 | 191 | 8.0 | 14.0 | 0.00 | 0.00 | 0.00 | 100 | |
| 20260506082958 | 57 | 192 | 8.0 | 16.0 | 0.00 | 0.00 | 0.00 | 100 | |
| 20260506082556 | 57 | 212 | 10.0 | 16.0 | 0.00 | 0.00 | 0.00 | 100 | |
| 20260506082156 | 57 | 207 | 10.0 | 14.0 | 0.00 | 0.00 | 0.00 | 100 | |
| 20260506081749 | 57 | 185 | 10.0 | 14.0 | 0.00 | 0.00 | 0.00 | 100 | |
| 20260506081349 | 57 | 196 | 10.0 | 15.0 | 0.00 | 0.00 | 0.00 | 100 | |
| 20260506080951 | 57 | 206 | 8.0 | 16.0 | 0.00 | 0.00 | 0.00 | 100 | |
| 20260506080547 | 57 | 186 | 9.0 | 13.0 | 0.00 | 0.00 | 0.00 | 100 | |
| 20260506080145 | 56 | 227 | 9.0 | 14.0 | 0.00 | 0.00 | 0.00 | 100 | |
| 20260506073343 | 55 | 157 | 9.0 | 17.0 | 0.00 | 0.00 | 0.00 | 100 | |
| 20260506072942 | 55 | 172 | 8.0 | 12.0 | 0.00 | 0.00 | 0.00 | 100 | |
| 20260506072540 | 54 | 177 | 10.0 | 16.0 | 0.00 | 0.00 | 0.00 | 100 | |
| 20260506072140 | 54 | 209 | 9.0 | 14.0 | 0.00 | 0.00 | 0.00 | 100 | |
| 20260506071740 | 54 | 191 | 9.0 | 12.0 | 0.00 | 0.00 | 0.00 | 100 | |
| 20260506071340 | 54 | 188 | 9.0 | 15.0 | 0.00 | 0.00 | 0.00 | 100 | |
| 20260506070940 | 53 | 226 | 8.0 | 14.0 | 0.00 | 0.00 | 0.00 | 100 | |
| 20260506070538 | 53 | 199 | 8.0 | 13.0 | 0.00 | 0.00 | 0.00 | 100 | |
| 20260506070138 | 53 | 210 | 10.0 | 13.0 | 0.00 | 0.00 | 0.00 | 100 | |
| 20260506062133 | 50 | 195 | 8.0 | 11.0 | 0.00 | 0.00 | 0.00 | 100 | |
| 20260506061733 | 50 | 195 | 8.0 | 13.0 | 0.00 | 0.00 | 0.00 | 100 | |
| 20260506061334 | 50 | 166 | 9.0 | 12.0 | 0.00 | 0.00 | 0.00 | 100 | |
| 20260506060933 | 50 | 166 | 10.0 | 12.0 | 0.00 | 0.00 | 0.00 | 100 | |
| 20260506060531 | 50 | 210 | 10.0 | 14.0 | 0.00 | 0.00 | 0.00 | 100 | |
| 20260506060131 | 51 | 208 | 8.0 | 12.0 | 0.00 | 0.00 | 0.00 | 100 | |
| 20260506051317 | 48 | 203 | 12.0 | 17.0 | 0.00 | 0.00 | 0.00 | 100 | |
| 20260506050917 | 48 | 169 | 12.0 | 19.0 | 0.00 | 0.00 | 0.00 | 100 | |
| 20260506050515 | 48 | 196 | 14.0 | 20.0 | 0.00 | 0.00 | 0.00 | 100 | |
| 20260506050115 | 48 | 198 | 11.0 | 18.0 | 0.00 | 0.00 | 0.00 | 100 | |
| 20260506044915 | 48 | 168 | 12.0 | 17.0 | 0.00 | 0.00 | 0.00 | 100 | |
| 20260506044513 | 48 | 163 | 11.0 | 15.0 | 0.00 | 0.00 | 0.00 | 100 | |
| 20260506044113 | 48 | 180 | 12.0 | 18.0 | 0.00 | 0.00 | 0.00 | 100 | |
| 20260506043713 | 48 | 159 | 12.0 | 17.0 | 0.00 | 0.00 | 0.00 | 100 | |
| 20260506043313 | 48 | 169 | 11.0 | 19.0 | 0.00 | 0.00 | 0.00 | 100 | |
| 20260506042913 | 48 | 193 | 12.0 | 17.0 | 0.00 | 0.00 | 0.00 | 100 | |
| 20260506042511 | 48 | 150 | 11.0 | 18.0 | 0.00 | 0.00 | 0.00 | 100 | |
| 20260506042111 | 48 | 193 | 13.0 | 20.0 | 0.00 | 0.00 | 0.00 | 100 | |
| 20260506041712 | 48 | 168 | 11.0 | 18.0 | 0.00 | 0.00 | 0.00 | 100 | |
| 20260506041312 | 48 | 199 | 12.0 | 20.0 | 0.00 | 0.00 | 0.00 | 100 | |
| 20260506040912 | 48 | 172 | 10.0 | 17.0 | 0.00 | 0.00 | 0.00 | 100 | |
| 20260506040510 | 49 | 184 | 13.0 | 22.0 | 0.00 | 0.00 | 0.00 | 100 | |
| 20260506040110 | 49 | 196 | 14.0 | 20.0 | 0.00 | 0.00 | 0.00 | 100 | |
| 20260506035710 | 49 | 194 | 13.0 | 20.0 | 0.00 | 0.00 | 0.00 | 100 | |
| 20260506035308 | 49 | 184 | 13.0 | 19.0 | 0.00 | 0.00 | 0.00 | 100 | |
| 20260506034908 | 49 | 176 | 14.0 | 24.0 | 0.00 | 0.00 | 0.00 | 100 | |
| 20260506034506 | 49 | 174 | 12.0 | 18.0 | 0.00 | 0.00 | 0.00 | 100 | |
| 20260506034106 | 49 | 175 | 15.0 | 21.0 | 0.00 | 0.00 | 0.00 | 100 | |
| 20260506033706 | 49 | 175 | 13.0 | 25.0 | 0.00 | 0.00 | 0.00 | 100 | |
| 20260506033306 | 49 | 194 | 16.0 | 24.0 | 0.00 | 0.00 | 0.00 | 100 | |
| 20260506032906 | 49 | 150 | 13.0 | 20.0 | 0.00 | 0.00 | 0.00 | 100 | |
| 20260506032504 | 49 | 176 | 15.0 | 22.0 | 0.00 | 0.00 | 0.00 | 100 | |
| 20260506032104 | 49 | 177 | 12.0 | 17.0 | 0.00 | 0.00 | 0.00 | 100 | |
| 20260506031704 | 49 | 182 | 15.0 | 25.0 | 0.00 | 0.00 | 0.00 | 100 | |
| 20260506031304 | 49 | 163 | 13.0 | 18.0 | 0.00 | 0.00 | 0.00 | 100 | |
| 20260506030857 | 49 | 168 | 16.0 | 26.0 | 0.00 | 0.00 | 0.00 | 100 | |
| 20260506030454 | 49 | 151 | 12.0 | 20.0 | 0.00 | 0.00 | 0.00 | 100 | |
| 20260506030054 | 49 | 191 | 14.0 | 21.0 | 0.00 | 0.00 | 0.00 | 100 | |
| 20260506025656 | 49 | 150 | 13.0 | 21.0 | 0.00 | 0.00 | 0.00 | 100 | |
| 20260506025255 | 49 | 176 | 12.0 | 18.0 | 0.00 | 0.00 | 0.00 | 100 | |
| 20260506024855 | 50 | 192 | 12.0 | 18.0 | 0.00 | 0.00 | 0.00 | 100 | |
| 20260506024453 | 50 | 134 | 9.0 | 16.0 | 0.00 | 0.00 | 0.00 | 100 | |
| 20260506024053 | 50 | 172 | 10.0 | 17.0 | 0.00 | 0.00 | 0.00 | 100 | |
| 20260506023653 | 50 | 181 | 15.0 | 20.0 | 0.00 | 0.00 | 0.00 | 100 | |
| 20260506023253 | 50 | 182 | 13.0 | 24.0 | 0.00 | 0.00 | 0.00 | 100 | |
| 20260506022853 | 51 | 180 | 16.0 | 25.0 | 0.00 | 0.00 | 0.00 | 100 | |
| 20260506022451 | 51 | 178 | 15.0 | 24.0 | 0.00 | 0.00 | 0.00 | 100 | |
| 20260506022051 | 51 | 186 | 14.0 | 20.0 | 0.00 | 0.00 | 0.00 | 100 | |
| 20260506021651 | 51 | 199 | 13.0 | 19.0 | 0.00 | 0.00 | 0.00 | 100 | |
| 20260506021251 | 51 | 199 | 16.0 | 23.0 | 0.00 | 0.00 | 0.00 | 100 | |
| 20260506020851 | 51 | 198 | 17.0 | 30.0 | 0.00 | 0.00 | 0.00 | 100 | |
| 20260506020449 | 51 | 190 | 15.0 | 20.0 | 0.00 | 0.00 | 0.00 | 100 | |
| 20260506020049 | 51 | 184 | 17.0 | 28.0 | 0.00 | 0.00 | 0.00 | 100 | |
| 20260506015649 | 51 | 200 | 18.0 | 29.0 | 0.00 | 0.00 | 0.00 | 100 | |
| 20260506015249 | 51 | 194 | 18.0 | 31.0 | 0.00 | 0.00 | 0.00 | 100 |